www.pogodaiklimat.ru

ПОГОДА в Маунт Холли, NJ

  • Прогноз погоды в Маунт Холли
  • Монитор погоды в Маунт Холли
  • Климат в Маунт Холли

АРХИВ ПОГОДЫ в Маунт Холли

Время (UTC), дата Ветер
(напр.,м/с)
 
Видим.   Явления Облачность Т
(С)
Тd
(С)
f
(%)
Тe
(С)
Тes
(С)
Комфортность

P
(гПа)

Po
(гПа)
Тmin
(С)
Tmax
(С)
R
(мм)
SD
(см)
21:54 22.03 З  8
{12} 
16 км  слабый дождь  10/8 1350 м
[средняя] 
+6.1  +0.6  68  +1  +1    1000.4  998.4         
22:54 22.03 З  4
{9} 
16 км    10/0 2400 м
[средняя] 
+5.6  0.0  67  +2  +2    1001.6  999.8  +5.6  +10.6     
23:54 22.03 З  8
{12} 
14 км  слабый дождь  10/8 870 м
[средняя] 
+5.0  +0.6  73  -1  -1    1002.8  1000.8         
00:01 23.03 З  5
{12} 
16 км  слабый дождь  10/10 750 м  +4.4  +0.6  76  -1  -1      1000.8         
00:54 23.03 З  6
{11} 
16 км    10/5 1080 м
[средняя] 
+5.6  -1.1  62  +1  +1    1003.4  1001.5         
01:54 23.03 З  6
{11} 
16 км    ясно  +5.0  -2.2  60  0  0    1003.8  1001.8      0.3   
02:54 23.03 З  9
{16} 
16 км    ясно  +5.0  -5.0  48  -1  -1    1004.2  1002.5         
03:54 23.03 З  7
{10} 
16 км    ясно  +4.4  -6.1  46  -1  -1    1004.4  1002.5         
04:54 23.03 З  7
{13} 
16 км    10/10 1470 м  +3.3  -5.6  52  -3  -3    1005.5  1003.5  +3.3  +6.1  0.3   
05:54 23.03 СЗ  8
{16} 
16 км    10/5 1410 м
[средняя] 
+3.3  -6.1  50  -3  -3    1006.0  1004.2         
06:54 23.03 З  9
{12} 
16 км    10/10 1320 м  +2.8  -6.1  52  -4  -4    1006.7  1004.9         
07:54 23.03 З  8
{13} 
16 км    10/10 1290 м  +2.8  -6.1  52  -4  -4    1007.6  1005.9         
08:54 23.03 СЗ  8
{13} 
16 км    ясно  +2.2  -6.7  52  -4  -4    1008.8  1006.9         
09:54 23.03 З  7
{11} 
16 км    ясно  +1.7  -6.7  54  -5  -5    1010.0  1007.9         
10:54 23.03 З  7
{11} 
16 км    2/0 3600 м
[средняя] 
+2.2  -6.1  54  -4  -4    1011.2  1009.3  +1.7  +3.3     
11:54 23.03 З  4
{14} 
16 км    ясно  +3.3  -5.6  52  -1  -0    1012.3  1010.3         
12:54 23.03 СЗ  6
{15} 
16 км    ясно  +5.0  -5.6  46  0  +1    1013.2  1011.3         
13:54 23.03 З  8
{11} 
16 км    ясно  +5.6  -5.6  44  +1  +1    1014.0  1012.0         
14:54 23.03 З  7
{13} 
16 км    ясно  +6.1  -6.1  41  +1  +3    1014.8  1013.0         
15:54 23.03 СЗ  7
{11} 
16 км    ясно  +7.8  -7.2  34  +4  +6    1015.2  1013.3         
16:54 23.03 СЗ  6
{13} 
16 км    ясно  +8.9  -8.3  29  +6  +9    1015.5  1013.7  +2.2  +8.9     
17:54 23.03 З  8
{14} 
16 км    ясно  +9.4  -10.0  24  +6  +7    1015.8  1014.0         
18:54 23.03 З  7
{10} 
16 км    ясно  +10.0  -10.6  22  +7  +9    1016.0  1014.3         
19:54 23.03 З  16 км    ясно  +10.6  -10.6  21  +8  +11    1016.6  1014.7         
20:54 23.03 З  8
{13} 
16 км    ясно  +10.6  -11.1  21  +7  +8    1017.3  1015.3         
21:54 23.03 СЗ  5
{10} 
16 км    ясно  +10.0  -12.8  19  +7  +8    1018.3  1016.4         
22:54 23.03 З  16 км    ясно  +9.4  -12.2  20  +7  +7    1019.4  1017.7  +8.9  +10.6     
23:54 23.03 З  16 км    ясно  +8.3  -11.1  24  +7  +7    1020.5  1018.7         
00:54 24.03 З  16 км    ясно  +7.8  -11.7  24  +6  +6    1021.1  1019.4         
01:54 24.03 З  16 км    ясно  +7.2  -11.1  26  +6  +6    1021.5  1019.7         
02:54 24.03 З  16 км    ясно  +6.7  -11.1  27  +5  +5    1021.9  1020.1         
03:54 24.03 З  16 км    ясно  +5.6  -11.1  29  +4  +4    1022.2  1020.4         
04:54 24.03 З  16 км    ясно  +5.6  -11.1  29  +4  +4    1022.5  1020.8  +5.6  +9.4     
05:54 24.03 З  16 км    ясно  +4.4  -10.6  33  +2  +2    1022.8  1021.1         
06:54 24.03 З  16 км    ясно  +4.4  -10.6  33  +3  +3    1022.8  1021.1         
07:54 24.03 З  16 км    ясно  +3.3  -10.0  37  +2  +2    1022.9  1021.1         
08:54 24.03   16 км    ясно  +2.2  -10.0  40  +2  +2    1023.4  1021.8         
09:54 24.03 ЮЗ  16 км    ясно  -1.7  -7.8  63  -4  -4    1024.6  1022.8         
10:54 24.03   16 км    ясно  +0.6  -6.1  61  0  0    1025.0  1023.1  -1.7  +5.6     
11:54 24.03 ЮЗ  16 км    ясно  +5.6  -7.2  39  +3  +4    1025.2  1023.5         
12:54 24.03 З  16 км    ясно  +7.8  -8.3  31  +5  +8    1024.8  1022.8         
13:54 24.03 СЗ  16 км    ясно  +10.0  -7.2  29  +9  +14    1024.2  1022.4         
14:54 24.03 З  16 км    ясно  +10.6  -6.7  29  +9  +18    1023.4  1021.4         
15:54 24.03 З  4
{9} 
16 км    ясно  +12.8  -6.1  26  +11  +18    1022.5  1020.8         
16:54 24.03 ЮЗ  16 км    ясно  +14.4  -6.1  24  +13  +21    1021.3  1019.4  +0.6  +15.0     
17:54 24.03 ЮЗ  6
{9} 
16 км    ясно  +15.0  -7.8  20  +13  +17    1020.2  1018.4         
18:54 24.03 З  4
{9} 
16 км    ясно  +16.1  -6.7  20  +16  +22    1018.7  1016.7         
19:54 24.03 ЮЗ  6
{9} 
16 км    ясно  +15.6  -6.7  21  +14  +16    1018.2  1016.4         

 

Местоположение метеостанции South Jersey Regional Airport: широта 39.9408 долгота -74.8407 высота над уровнем моря 15 м.

В архиве по умолчанию представлена погода в Маунт Холли за последние 1-2 суток. Обновление информации о фактической погоде в базе происходит ежечасно! Архивные данные за месяц целиком и за предыдущие месяцы Вы можете получить, выбрав интересующий диапазон дат из раскрывающегося списка и нажав кнопку "Ввод!".

Внимание! Архив погоды МЕТАР в базе сайта хранится не более 60 дней. Нет смысла пытаться выбрать более раннюю дату.

Внимание! Время в таблицах - всемирное. Для получения местного времени необходимо прибавить поправку, которая в Маунт Холли равна -5 ч.

Ветер - указаны скорость ветра в м/с и направление, откуда дует ветер: С - северный, СВ - северо-восточный, В - восточный, ЮВ - юго-восточный, Ю - южный, ЮЗ - юго-западный, З - западный, СЗ - северо-западный.
Видимость - горизонтальная дальность видимости в метрах или километрах. При видимости от 1 до 10 км при отсутствии осадков обычно наблюдается дымка, при ухудшении видимости до 1 км и менее - туман. В сухую погоду видимость может ухудшаться дымом, пылью или мглою.
Атмосферные явления - указаны явления, наблюдавшиеся в указанный момент времени.
Облачность - указаны через наклонную черту верхняя и нижняя облачность в баллах и высота нижней границы облаков в метрах. Внимание: облачность, как и прочие метеорологические величины в США измеряются автоматическими метеостанциями. Указанные значения в баллах носят условный характер и показывают процент времени, в течение которого, в среднем, лазерный луч высотомера отражался от облаков обратно.
T - Температура воздуха - температура, измеренная на высоте 2 м над землей.
Td - Температура точки росы - температура, при понижении до которой содержащийся в воздухе водяной пар достигнет насыщения.
f - Относительная влажность воздуха - влажноcть воздуха, измеренная на высоте 2 м над землей.
Te - Эффективная температура - температура, которую ощущает одетый по сезону человек в тени. Характеристика душности погоды. При расчете учитывается влияние влажности воздуха и скорости ветра на теплоощущения человека.
Tes - Эффективная температура на солнце - температура, которую ощущает человек, с поправкой на солнечный нагрев. Характеристика знойности погоды. Зависит от высоты солнца над горизонтом, облачности и скорости ветра. Ночью, в пасмурную погоду, а также при ветре 12 м/с и более поправка равна нулю.
P - Атмосферное давление - приведенное к уровню моря атмосферное давление.
Po - Атмосферное давление - измеренное на уровне метеостанции атмосферное давление.
Tmin - Минимальная температура - минимум температуры воздуха на высоте 2 м над землей.
Tmax - Максимальная температура - максимум температуры воздуха на высоте 2 м над землей.
R - Количество осадков - Количество выпавших осадков за 3 или 6 часов, мм.
SD - Снежный покров - Высота снежного покрова, см.